Retour au catalogue

SATCOM 2R

ActifCommunicationsGEO
NORAD 14328·PAYLOAD·🇺🇸 United States

Lancé Sep 8, 1983 depuis Cape Canaveral Space Force Station

Loading…

TLE

FraisSource: Space-Track

Époque: Sep 14, 2026, 05:33 UTC

1 14328U 83094A   26257.23139185 -.00000058  00000-0  00000-0 0  9990
2 14328  14.2689 345.2620 0012792  83.5882 271.2767  0.99407299156437

Suivez SATCOM 2R en temps réel avec AllMySat

Download on the App Store